Location: Diebersbach
(48.5163°N, 8.0558°E)
Time: 03:30:15
(UTC+00:00)

Daily predictions for brighter satellites

Satellite Brightness Start Highest point End
(mag) Time Altitude Azimuth Time Altitude Azimuth Time Altitude Azimuth
ATLAS CENTAUR R/B 4.2 00:07:52 10° WSW 00:13:54 74° NNW 00:30:46 10° ENE
Cosmos 1825 2.6 00:13:02 34° SSE 00:14:19 51° E 00:17:59 10° NNE
Cosmos 540 Rocket 4.2 00:15:11 25° SSE 00:17:36 40° ESE 00:22:23 10° NE
Cosmos 990 Rocket 3.9 00:14:45 10° NNW 00:19:56 70° WSW 00:22:37 28° S
Cosmos 1408 2.5 00:19:18 42° SSW 00:20:25 76° W 00:24:07 10° N
Cosmos 1242 Rocket 3.9 00:20:34 10° N 00:23:54 35° ENE 00:26:09 18° SE
SL-16 R/B 3.0 00:19:56 16° WSW 00:24:11 46° NW 00:29:40 10° NNE
Cosmos 405 Rocket 2.5 00:23:36 41° S 00:24:48 78° E 00:28:30 10° NNE
Cosmos 841 Rocket 4.3 00:23:03 24° SSE 00:25:39 41° ESE 00:30:28 10° NE
Cosmos 1656 Rocket 3.7 00:19:56 10° NNW 00:25:41 84° ENE 00:30:16 16° SSE
Cosmos 2221 2.9 00:21:38 10° N 00:25:53 57° ENE 00:28:23 23° SSE
Cosmos 2058 3.3 00:24:22 30° SSE 00:26:08 54° E 00:30:08 10° NNE
USA 229 DEB 3.6 00:22:35 23° SW 00:26:49 86° SE 00:33:45 10° NE
USA 229 3.6 00:22:43 23° SW 00:26:55 85° SE 00:33:51 10° NE
Meteor 2-13 Rocket 4.4 00:23:59 27° S 00:27:36 86° W 00:33:49 10° N
Cosmos 2237 Rocket 4.3 00:23:34 10° W 00:27:47 21° NW 00:32:01 10° N
X-37B 1.4 00:28:47 34° SE 00:28:47 34° SE 00:31:00 10° ESE
Cosmos 1898 Rocket 3.5 00:28:02 10° NNW 00:33:15 67° WSW 00:36:10 26° S
Cosmos 1937 Rocket 3.5 00:28:12 10° NNW 00:33:35 89° WSW 00:37:19 20° SSE
Nadezhda 4 Rocket 4.1 00:30:48 23° S 00:34:44 68° E 00:40:49 10° NNE
NOSS 3-1 (C) 3.8 00:31:11 16° WSW 00:35:39 60° NW 00:42:07 10° NE
Cosmos 2369 Rocket 2.4 00:30:08 10° NW 00:35:44 57° WSW 00:38:58 25° S
Aureole 3 Rocket 4.1 00:33:56 10° N 00:37:37 43° ENE 00:41:59 12° SSE
YAOGAN 11 4.1 00:35:34 29° S 00:37:46 73° WSW 00:42:18 10° NNW
Cosmos 1356 4.0 00:37:29 33° WSW 00:38:30 44° WNW 00:41:48 10° N
USA 307 4.2 00:38:07 23° SSE 00:38:56 24° SE 00:42:24 10° E
SJ 16-02 3.0 00:36:07 10° NW 00:39:07 18° W 00:40:01 17° WSW
FALCON 9 DEB 4.5 00:36:50 10° WNW 00:39:47 37° N 00:42:45 10° E
CREW DRAGON DEMO-1 DEB 2.1 00:40:05 82° NW 00:40:07 83° NNW 00:42:34 10° ENE
USA 215 4.1 00:38:54 10° ENE 00:45:10 51° NNW 00:51:26 10° W
NOSS 2-3 (E) 4.3 00:42:31 17° WSW 00:45:35 51° NW 00:50:33 10° NE
NOSS 3-1 (A) 3.4 00:42:41 21° SW 00:46:29 78° NW 00:52:59 10° NE
Cosmos 2263 4.3 00:43:49 10° NW 00:49:25 60° WSW 00:53:06 21° S
ATLAS 5 CENTAUR R/B 2.8 00:48:04 20° SSE 00:49:36 26° ESE 00:53:10 10° ENE
CZ-4 R/B 3.8 00:46:16 10° NNE 00:50:56 79° WNW 00:53:33 26° SSW
Helios 1B rocket 3.6 00:47:52 10° NNE 00:51:38 34° E 00:54:08 18° SSE
USA 308 3.9 00:53:26 25° S 00:54:46 31° SE 00:58:32 10° ENE
Cosmos 1633 3.4 00:53:22 22° SSE 00:55:10 41° E 00:58:31 10° NNE
ADEOS Rocket 4.1 00:48:50 10° SE 00:55:42 49° ENE 01:01:57 10° N
Meteor 2-2 Rocket 4.5 00:50:10 10° NNW 00:56:09 64° W 01:00:07 22° S
FALCON 9 DEB 4.0 00:53:58 10° WNW 00:56:58 46° NNE 00:59:58 10° E
CZ-3B R/B 3.7 00:47:55 10° WNW 00:57:29 46° N 01:00:38 10° ENE
UNK 4.0 00:54:25 14° SSE 00:58:17 67° ENE 01:02:53 10° N
Helios 1A 3.4 01:00:06 27° SSW 01:01:55 45° W 01:05:58 10° NNW
Cosmos 1606 2.6 00:58:07 10° N 01:01:59 87° E 01:04:12 24° S
FALCON 9 DEB 4.1 01:00:43 10° WNW 01:03:44 44° NNE 01:06:45 10° E
Cosmos 1570 Rocket 4.3 01:01:44 22° S 01:05:04 60° ESE 01:10:13 10° NNE
SL-16 R/B 2.5 00:59:52 12° SSE 01:05:36 89° ENE 01:11:50 10° NNW
FALCON 9 DEB 3.8 01:04:12 10° WNW 01:07:15 49° NNE 01:10:16 10° E
Cosmos 372 Rocket 3.9 01:03:17 10° NNW 01:08:33 79° WSW 01:13:10 13° SSE
USA 305 3.4 01:10:31 26° SSW 01:12:30 44° SE 01:16:33 10° ENE
USA 290 2.9 01:11:15 26° SSE 01:12:41 45° ESE 01:15:48 10° NE
Lacrosse 4 Rocket 1.4 01:10:46 10° NNW 01:14:53 81° ENE 01:18:56 10° SE
CZ-4C R/B 4.4 01:14:14 10° ESE 01:15:31 11° ESE 01:16:52 10° E
Cosmos 1092 Rocket 4.0 01:11:05 18° S 01:15:45 83° E 01:21:56 10° N
Cosmos 2098 Rocket 3.5 01:15:08 21° SSW 01:18:38 60° W 01:22:59 10° N
Cosmos 1763 Rocket 4.4 01:15:44 16° WSW 01:19:23 38° WNW 01:24:12 10° N
BREEZE-M R/B 3.3 01:18:11 23° SSW 01:19:51 37° SE 01:24:35 10° ENE
Cosmos 2208 Rocket 4.3 01:16:33 19° S 01:20:24 66° ESE 01:25:50 10° NNE
Resurs 1-4 Rocket 2.1 01:15:08 10° NNE 01:20:30 90° ESE 01:24:24 19° SSW
USA 267 4.5 01:19:19 18° SW 01:20:48 19° WSW 01:25:17 10° W
Cosmos 1437 Rocket 3.9 01:17:31 10° NNW 01:20:51 28° W 01:22:18 21° SW
Meteor 2-19 Rocket 4.5 01:16:27 18° S 01:21:08 89° E 01:27:18 10° N
Meteor 1-29 4.1 01:21:17 10° NNE 01:24:28 35° E 01:26:57 14° SSE
OE (NEXTSAT) 4.4 01:22:34 20° WSW 01:24:43 54° S 01:28:06 10° E
SL-4 R/B 2.5 01:22:33 10° WNW 01:26:13 52° N 01:29:40 10° E
Cosmos 1943 Rocket 4.1 01:26:29 10° W 01:28:00 11° W 01:29:30 10° WSW
MINOTAUR 4 R/B 4.2 01:26:32 12° SSE 01:29:47 71° ENE 01:33:19 10° N
Cosmos 1842 Rocket 4.5 01:27:03 10° NNW 01:30:55 32° W 01:33:14 20° SW
NPP 3.7 01:26:15 10° NNE 01:31:41 89° ESE 01:35:57 17° SSW
ADEOS II 2.6 01:26:56 10° NNE 01:32:07 56° E 01:36:49 12° S
NOSS 2-2 (D) 3.2 01:30:21 23° SSW 01:32:16 61° SE 01:35:57 10° NE
USA 306 3.0 01:32:05 20° SW 01:34:50 60° SE 01:39:02 10° ENE
Lacrosse 5 rocket 2.9 01:31:48 10° NW 01:35:06 33° NNE 01:38:28 10° E
Cosmos 921 Rocket 3.2 01:32:38 20° SW 01:35:22 58° WNW 01:39:31 10° NNE
Meteor 2-3 Rocket 4.1 01:31:29 12° S 01:36:35 61° E 01:42:05 10° NNE
FALCON 9 DEB 3.3 01:33:25 10° WNW 01:36:41 45° SW 01:39:56 10° SE
Cosmos 1943 3.9 01:33:25 15° SW 01:37:56 47° NW 01:43:25 10° NNE
CZ-2D R/B 2.2 01:34:01 10° N 01:39:12 67° WNW 01:43:15 17° SSW
Alouette 2 Rocket 4.4 01:36:59 10° N 01:40:24 42° ENE 01:44:14 10° SE
IDEFIX/ARIANE 42P 3.6 01:41:30 10° NNE 01:46:29 41° E 01:51:23 10° SSE
Cosmos 2151 2.9 01:44:56 17° SSW 01:48:08 74° W 01:52:21 10° N
Cosmos 1825 4.4 01:47:59 10° W 01:50:07 14° WNW 01:52:15 10° NNW
EXPRESS MD2 4.4 01:41:48 10° WSW 01:51:15 77° SSE 01:55:40 10° ENE
AQUA 3.9 01:46:32 10° N 01:51:18 73° WNW 01:55:17 15° SSW
Cosmos 1076 Rocket 4.3 01:49:45 16° SW 01:52:41 38° WNW 01:56:42 10° N
Cosmos 1437 3.9 01:52:37 10° NW 01:54:51 21° W 01:55:51 18° SW
Meteor 1-26 Rocket 4.4 01:49:20 10° NNW 01:55:12 89° W 02:01:12 10° S
Cosmos 1242 Rocket 4.3 01:56:00 10° NW 01:58:28 18° W 02:00:05 14° WSW
DELTA 2 R/B (1) 4.3 01:57:41 10° WSW 02:02:31 33° S 02:07:26 10° ESE
Cosmos 2221 4.4 02:00:27 10° NW 02:02:57 15° W 02:05:12 11° WSW
X-37B 1.3 02:01:23 10° W 02:04:17 32° SSW 02:07:11 10° SE
CBERS-1 4.3 02:00:43 10° NNE 02:05:52 68° ESE 02:10:59 10° S
IRS-1D 3.6 02:00:56 10° NNE 02:06:07 84° ESE 02:11:09 10° SSW
BREEZE-M DEB (TANK) 1.1 02:04:09 10° WNW 02:06:33 82° SSW 02:09:05 10° ESE
Cosmos 1812 3.6 02:06:01 10° N 02:09:46 49° ENE 02:13:29 10° SSE
Cosmos 1553 Rocket 4.0 02:03:44 10° NNW 02:10:02 71° W 02:16:11 10° S
NOSS 2-2 (E) 3.8 02:08:02 11° WSW 02:11:12 46° NW 02:15:02 10° NNE
Cosmos 2292 Rocket 2.7 02:09:53 14° SSW 02:12:20 60° W 02:15:19 10° N
SL-08 R/B 4.5 02:09:01 10° SE 02:13:28 45° ENE 02:18:01 10° N
CREW DRAGON DEMO-1 DEB 3.8 02:11:40 10° WNW 02:13:58 36° N 02:16:17 10° ENE
Cosmos 1697 Rocket 4.4 02:09:46 10° NNW 02:15:02 38° NE 02:20:16 10° ESE
FALCON 9 DEB 2.7 02:12:34 10° WNW 02:15:42 76° SSW 02:18:49 10° ESE
S3M 4.0 02:09:56 10° N 02:16:08 89° E 02:22:21 10° S
Cosmos 1782 2.8 02:12:42 10° NNW 02:16:41 65° W 02:20:39 10° S
USA 281 3.2 02:11:23 10° SSE 02:17:58 85° WSW 02:24:36 10° NNW
Meteor 2-14 Rocket 4.5 02:12:13 10° S 02:18:19 87° W 02:24:31 10° N
USA 307 3.0 02:14:18 10° WSW 02:18:34 82° NNW 02:22:49 10° ENE
Cosmos 1271 Rocket 2.6 02:14:53 10° NNW 02:18:39 89° E 02:22:24 10° S
MSX 4.4 02:13:12 10° NNE 02:18:55 59° E 02:24:34 10° S
NOSS 2-2 (C) 3.9 02:21:34 10° WSW 02:24:53 43° NW 02:28:38 10° NNE
CZ-4C R/B 2.9 02:21:58 10° S 02:25:24 73° WSW 02:28:53 10° NNW
Helios 1B rocket 3.8 02:23:20 10° N 02:26:44 26° WNW 02:30:07 10° WSW
ERBS 2.9 02:24:39 11° SSW 02:27:36 44° SE 02:30:43 10° ENE
Cosmos 1328 Rocket 3.5 02:26:20 10° NNW 02:30:41 71° W 02:35:02 10° S
NOSS 3-2 (A) 4.2 02:24:02 10° NW 02:31:29 85° NE 02:40:00 10° SE
FALCON 9 DEB 3.2 02:29:37 10° WNW 02:32:35 42° SW 02:35:30 10° SE
ATLAS 5 CENTAUR R/B 2.3 02:30:01 10° WSW 02:33:54 44° NW 02:38:20 10° NNE
USA 308 3.1 02:30:17 10° WSW 02:34:31 69° NNW 02:38:46 10° ENE
SeaSat 1 2.8 02:30:28 10° NE 02:35:23 63° ESE 02:40:15 10° SSW
Spot 1 4.4 02:31:11 10° S 02:36:13 70° WSW 02:41:05 10° NNW
FALCON 9 DEB 3.1 02:36:27 10° WNW 02:39:29 47° SSW 02:42:28 10° SE
Meteor 2-6 Rocket 4.3 02:33:39 10° NNW 02:39:35 85° W 02:45:21 10° S
ADEOS Rocket 3.9 02:34:36 10° SSW 02:41:17 38° W 02:47:26 10° NNW
FALCON 9 DEB 3.4 02:39:55 10° WNW 02:42:50 37° SW 02:45:42 10° SSE
Cosmos 1980 Rocket 4.2 02:39:40 10° NNW 02:44:47 35° NE 02:49:52 10° ESE
